| time (UTC) | temp F | wind direction | speed MPH | gust MPH | rain 1hr in | rain 24hr in | rain mn in | humidity % | barometer mb |
| 20260901092215 | 80 | 223 | 0.0 | 1.0 | 0.00 | 0.00 | 0.00 | 91 | 1014.6 |
| 20260901091647 | 80 | 222 | 0.0 | 0.0 | 0.00 | 0.00 | 0.00 | 91 | 1014.6 |
| 20260901091144 | 80 | 222 | 0.0 | 0.0 | 0.00 | 0.00 | 0.00 | 91 | 1014.7 |
| 20260901090618 | 80 | 223 | 0.0 | 1.0 | 0.00 | 0.00 | 0.00 | 91 | 1014.8 |
| 20260901090047 | 80 | 223 | 0.0 | 1.0 | 0.00 | 0.00 | 0.00 | 91 | 1014.7 |
| 20260901085543 | 80 | 222 | 0.0 | 1.0 | 0.00 | 0.00 | 0.00 | 91 | 1014.7 |
| 20260901085243 | 80 | 221 | 0.0 | 1.0 | 0.00 | 0.00 | 0.00 | 91 | 1014.7 |
| 20260901084451 | 80 | 211 | 0.0 | 1.0 | 0.00 | 0.00 | 0.00 | 90 | 1014.6 |
| 20260901083923 | 80 | 207 | 0.0 | 1.0 | 0.00 | 0.00 | 0.00 | 90 | 1014.7 |
| 20260901083420 | 80 | 207 | 0.0 | 1.0 | 0.00 | 0.00 | 0.00 | 90 | 1014.9 |
| 20260901082853 | 80 | 207 | 0.0 | 1.0 | 0.00 | 0.00 | 0.00 | 90 | 1014.9 |
| 20260901082350 | 80 | 142 | 0.0 | 0.0 | 0.00 | 0.00 | 0.00 | 90 | 1014.9 |
| 20260901082052 | 80 | 142 | 0.0 | 0.0 | 0.00 | 0.00 | 0.00 | 90 | 1014.9 |
| 20260901081259 | 80 | 142 | 0.0 | 0.0 | 0.00 | 0.00 | 0.00 | 90 | 1014.9 |
| 20260901080731 | 80 | 142 | 0.0 | 0.0 | 0.00 | 0.00 | 0.00 | 90 | 1014.9 |
| 20260901080222 | 80 | 142 | 0.0 | 0.0 | 0.00 | 0.00 | 0.00 | 90 | 1014.9 |
| 20260901075945 | 80 | 142 | 0.0 | 0.0 | 0.00 | 0.00 | 0.00 | 90 | 1014.9 |
| 20260901075707 | 80 | 142 | 0.0 | 0.0 | 0.00 | 0.00 | 0.00 | 89 | 1015.0 |
| 20260901074654 | 80 | 142 | 0.0 | 0.0 | 0.00 | 0.00 | 0.00 | 89 | 1014.9 |
| 20260901074151 | 80 | 142 | 0.0 | 0.0 | 0.00 | 0.00 | 0.00 | 89 | 1014.9 |
| 20260901073623 | 81 | 142 | 0.0 | 0.0 | 0.00 | 0.00 | 0.00 | 88 | 1014.9 |
| 20260901073121 | 81 | 142 | 0.0 | 0.0 | 0.00 | 0.00 | 0.00 | 88 | 1015.0 |
| 20260901073037 | 81 | 142 | 0.0 | 0.0 | 0.00 | 0.00 | 0.00 | 88 | 1015.1 |
| 20260901072025 | 81 | 142 | 0.0 | 0.0 | 0.00 | 0.00 | 0.00 | 88 | 1015.0 |
| 20260901071522 | 81 | 142 | 0.0 | 0.0 | 0.00 | 0.00 | 0.00 | 87 | 1015.0 |
| 20260901071436 | 81 | 142 | 0.0 | 0.0 | 0.00 | 0.00 | 0.00 | 87 | 1015.0 |
| 20260901070454 | 81 | 142 | 0.0 | 0.0 | 0.00 | 0.00 | 0.00 | 87 | 1015.0 |
| 20260901065950 | 82 | 142 | 0.0 | 0.0 | 0.00 | 0.00 | 0.00 | 86 | 1015.0 |
| 20260901065424 | 82 | 142 | 0.0 | 0.0 | 0.00 | 0.00 | 0.00 | 86 | 1014.9 |
| 20260901064921 | 82 | 142 | 0.0 | 0.0 | 0.00 | 0.00 | 0.00 | 86 | 1015.0 |
| 20260901064419 | 82 | 142 | 0.0 | 0.0 | 0.00 | 0.00 | 0.00 | 85 | 1015.0 |
| 20260901063907 | 82 | 142 | 0.0 | 0.0 | 0.00 | 0.00 | 0.00 | 85 | 1015.0 |
| 20260901063409 | 82 | 142 | 0.0 | 0.0 | 0.00 | 0.00 | 0.00 | 85 | 1015.0 |
| 20260901062841 | 82 | 142 | 0.0 | 0.0 | 0.00 | 0.00 | 0.00 | 85 | 1015.1 |
| 20260901062317 | 83 | 142 | 0.0 | 0.0 | 0.00 | 0.00 | 0.00 | 84 | 1015.2 |
| 20260901061751 | 83 | 142 | 0.0 | 0.0 | 0.00 | 0.00 | 0.00 | 84 | 1015.1 |
| 20260901061222 | 83 | 142 | 0.0 | 0.0 | 0.00 | 0.00 | 0.00 | 84 | 1015.1 |
| 20260901060719 | 83 | 142 | 0.0 | 0.0 | 0.00 | 0.00 | 0.00 | 84 | 1015.2 |
| 20260901060217 | 83 | 142 | 0.0 | 0.0 | 0.00 | 0.00 | 0.00 | 84 | 1015.2 |
| 20260901055650 | 83 | 142 | 0.0 | 0.0 | 0.00 | 0.00 | 0.00 | 84 | 1015.3 |
| 20260901055131 | 83 | 142 | 0.0 | 0.0 | 0.00 | 0.00 | 0.00 | 83 | 1015.2 |
| 20260901055115 | 83 | 142 | 0.0 | 1.0 | 0.00 | 0.00 | 0.00 | 83 | 1015.1 |
| 20260901054132 | 83 | 142 | 0.0 | 1.0 | 0.00 | 0.00 | 0.00 | 83 | 1015.1 |
| 20260901053605 | 83 | 142 | 0.0 | 0.0 | 0.00 | 0.00 | 0.00 | 82 | 1015.1 |
| 20260901053102 | 83 | 142 | 0.0 | 0.0 | 0.00 | 0.00 | 0.00 | 82 | 1015.0 |
| 20260901052535 | 83 | 142 | 0.0 | 0.0 | 0.00 | 0.00 | 0.00 | 82 | 1015.0 |
| 20260901052033 | 83 | 142 | 0.0 | 1.0 | 0.00 | 0.00 | 0.00 | 82 | 1015.0 |
| 20260901051507 | 83 | 142 | 0.0 | 1.0 | 0.00 | 0.00 | 0.00 | 82 | 1015.0 |
| 20260901050939 | 83 | 142 | 0.0 | 1.0 | 0.00 | 0.00 | 0.00 | 81 | 1015.0 |
| 20260901050437 | 83 | 141 | 0.0 | 1.0 | 0.00 | 0.00 | 0.00 | 81 | 1015.0 |
| 20260901045909 | 84 | 141 | 0.0 | 1.0 | 0.00 | 0.00 | 0.00 | 81 | 1014.9 |
| 20260901045402 | 84 | 141 | 0.0 | 1.0 | 0.00 | 0.00 | 0.00 | 80 | 1014.8 |
| 20260901044859 | 84 | 141 | 0.0 | 1.0 | 0.00 | 0.00 | 0.00 | 80 | 1014.8 |
| 20260901044358 | 84 | 141 | 0.0 | 2.0 | 0.00 | 0.00 | 0.00 | 80 | 1014.8 |
| 20260901043832 | 84 | 141 | 0.0 | 3.0 | 0.00 | 0.00 | 0.00 | 80 | 1014.8 |
| 20260901043331 | 84 | 159 | 0.0 | 2.0 | 0.00 | 0.00 | 0.00 | 80 | 1014.7 |
| 20260901043252 | 84 | 159 | 0.0 | 2.0 | 0.00 | 0.00 | 0.00 | 80 | 1014.7 |
| 20260901042753 | 84 | 159 | 0.0 | 2.0 | 0.00 | 0.00 | 0.00 | 80 | 1014.7 |
| 20260901041741 | 84 | 159 | 0.0 | 1.0 | 0.00 | 0.00 | 0.00 | 80 | 1014.8 |
| 20260901041240 | 84 | 159 | 0.0 | 2.0 | 0.00 | 0.00 | 0.00 | 81 | 1014.8 |
| 20260901040709 | 84 | 157 | 1.0 | 3.0 | 0.00 | 0.00 | 0.00 | 81 | 1014.7 |
| 20260901040209 | 83 | 157 | 1.0 | 3.0 | 0.00 | 0.00 | 0.00 | 81 | 1014.7 |
| 20260901035709 | 83 | 179 | 0.0 | 2.0 | 0.00 | 0.00 | 0.00 | 81 | 1014.6 |
| 20260901035144 | 83 | 187 | 0.0 | 2.0 | 0.00 | 0.00 | 0.00 | 81 | 1014.6 |
| 20260901034623 | 83 | 190 | 0.0 | 2.0 | 0.00 | 0.00 | 0.00 | 81 | 1014.5 |
| 20260901034122 | 84 | 188 | 0.0 | 1.0 | 0.00 | 0.00 | 0.00 | 80 | 1014.4 |
| 20260901033621 | 84 | 188 | 0.0 | 0.0 | 0.00 | 0.00 | 0.00 | 80 | 1014.4 |
| 20260901033120 | 84 | 188 | 0.0 | 1.0 | 0.00 | 0.00 | 0.00 | 80 | 1014.4 |
| 20260901032621 | 84 | 188 | 0.0 | 1.0 | 0.00 | 0.00 | 0.00 | 80 | 1014.4 |
| 20260901032052 | 84 | 188 | 0.0 | 0.0 | 0.00 | 0.00 | 0.00 | 79 | 1014.4 |
| 20260901031549 | 84 | 188 | 0.0 | 0.0 | 0.00 | 0.00 | 0.00 | 79 | 1014.2 |
| 20260901031027 | 84 | 188 | 0.0 | 0.0 | 0.00 | 0.00 | 0.00 | 78 | 1014.1 |
| 20260901030505 | 85 | 188 | 0.0 | 0.0 | 0.00 | 0.00 | 0.00 | 78 | 1014.0 |
| 20260901030002 | 85 | 188 | 0.0 | 0.0 | 0.00 | 0.00 | 0.00 | 78 | 1014.0 |
| 20260901025501 | 85 | 188 | 0.0 | 0.0 | 0.00 | 0.00 | 0.00 | 77 | 1013.9 |
| 20260901025000 | 85 | 188 | 0.0 | 0.0 | 0.00 | 0.00 | 0.00 | 77 | 1013.9 |
| 20260901024436 | 85 | 188 | 0.0 | 0.0 | 0.00 | 0.00 | 0.00 | 77 | 1013.9 |
| 20260901023915 | 85 | 188 | 0.0 | 0.0 | 0.00 | 0.00 | 0.00 | 76 | 1013.8 |
| 20260901023416 | 86 | 188 | 0.0 | 0.0 | 0.00 | 0.00 | 0.00 | 76 | 1013.8 |
| 20260901022850 | 86 | 188 | 0.0 | 1.0 | 0.00 | 0.00 | 0.00 | 76 | 1013.6 |
| 20260901022350 | 86 | 188 | 0.0 | 2.0 | 0.00 | 0.00 | 0.00 | 76 | 1013.6 |
| 20260901021827 | 86 | 188 | 0.0 | 2.0 | 0.00 | 0.00 | 0.00 | 76 | 1013.5 |
| 20260901021312 | 86 | 188 | 0.0 | 1.0 | 0.00 | 0.00 | 0.00 | 75 | 1013.5 |
| 20260901020808 | 86 | 188 | 0.0 | 1.0 | 0.00 | 0.00 | 0.00 | 75 | 1013.5 |
| 20260901020308 | 87 | 188 | 0.0 | 1.0 | 0.00 | 0.00 | 0.00 | 75 | 1013.4 |
| 20260901015804 | 87 | 188 | 0.0 | 1.0 | 0.00 | 0.00 | 0.00 | 75 | 1013.3 |
| 20260901015306 | 87 | 188 | 0.0 | 2.0 | 0.00 | 0.00 | 0.00 | 74 | 1013.3 |
| 20260901014742 | 87 | 188 | 0.0 | 2.0 | 0.00 | 0.00 | 0.00 | 74 | 1013.3 |
| 20260901014243 | 87 | 188 | 0.0 | 2.0 | 0.00 | 0.00 | 0.00 | 74 | 1013.2 |
| 20260901013956 | 87 | 188 | 0.0 | 2.0 | 0.00 | 0.00 | 0.00 | 73 | 1013.2 |
| 20260901013230 | 87 | 189 | 0.0 | 3.0 | 0.00 | 0.00 | 0.00 | 73 | 1013.2 |
| 20260901012726 | 87 | 188 | 0.0 | 3.0 | 0.00 | 0.00 | 0.00 | 73 | 1013.2 |
| 20260901012228 | 88 | 180 | 0.0 | 2.0 | 0.00 | 0.00 | 0.00 | 73 | 1013.1 |
| 20260901011706 | 88 | 180 | 0.0 | 1.0 | 0.00 | 0.00 | 0.00 | 72 | 1013.2 |
| 20260901011427 | 88 | 180 | 0.0 | 3.0 | 0.00 | 0.00 | 0.00 | 71 | 1013.2 |
| 20260901010639 | 88 | 180 | 0.0 | 3.0 | 0.00 | 0.00 | 0.00 | 71 | 1013.1 |
| 20260901010400 | 89 | 182 | 0.0 | 2.0 | 0.00 | 0.00 | 0.00 | 71 | 1013.2 |
| 20260901005642 | 89 | 182 | 0.0 | 2.0 | 0.00 | 0.00 | 0.00 | 70 | 1013.1 |
| 20260901005116 | 89 | 182 | 0.0 | 2.0 | 0.00 | 0.00 | 0.00 | 69 | 1013.2 |
| 20260901004551 | 89 | 182 | 0.0 | 2.0 | 0.00 | 0.00 | 0.00 | 69 | 1013.1 |
| 20260901004033 | 89 | 179 | 0.0 | 3.0 | 0.00 | 0.00 | 0.00 | 69 | 1013.2 |
| 20260901003508 | 89 | 179 | 0.0 | 4.0 | 0.00 | 0.00 | 0.00 | 68 | 1013.2 |
| 20260901003008 | 90 | 192 | 0.0 | 1.0 | 0.00 | 0.00 | 0.00 | 68 | 1013.3 |
| 20260901002449 | 90 | 192 | 0.0 | 3.0 | 0.00 | 0.00 | 0.00 | 68 | 1013.3 |
| 20260901001927 | 90 | 192 | 0.0 | 3.0 | 0.00 | 0.00 | 0.00 | 67 | 1013.3 |
| 20260901001409 | 90 | 136 | 0.0 | 2.0 | 0.00 | 0.00 | 0.00 | 68 | 1013.3 |
| 20260901000908 | 90 | 136 | 0.0 | 2.0 | 0.00 | 0.00 | 0.00 | 67 | 1013.2 |
| 20260901000406 | 91 | 135 | 0.0 | 3.0 | 0.00 | 0.00 | 0.00 | 67 | 1013.3 |
| 20260831235906 | 91 | 178 | 0.0 | 3.0 | 0.00 | 0.00 | 0.00 | 66 | 1013.3 |
| 20260831235614 | 91 | 184 | 0.0 | 3.0 | 0.00 | 0.00 | 0.00 | 66 | 1013.3 |
| 20260831235111 | 91 | 139 | 0.0 | 1.0 | 0.00 | 0.00 | 0.00 | 66 | 1013.3 |
| 20260831234329 | 92 | 139 | 0.0 | 3.0 | 0.00 | 0.00 | 0.00 | 66 | 1013.3 |
| 20260831234050 | 92 | 136 | 1.0 | 4.0 | 0.00 | 0.00 | 0.00 | 65 | 1013.4 |
| 20260831233328 | 92 | 134 | 1.0 | 4.0 | 0.00 | 0.00 | 0.00 | 65 | 1013.4 |
| 20260831233023 | 92 | 153 | 1.0 | 4.0 | 0.00 | 0.00 | 0.00 | 64 | 1013.4 |
| 20260831232519 | 92 | 138 | 1.0 | 4.0 | 0.00 | 0.00 | 0.00 | 64 | 1013.4 |
| 20260831232019 | 92 | 180 | 1.0 | 4.0 | 0.00 | 0.00 | 0.00 | 64 | 1013.4 |
| 20260831231230 | 92 | 163 | 1.0 | 5.0 | 0.00 | 0.00 | 0.00 | 65 | 1013.4 |
| 20260831230944 | 92 | 138 | 1.0 | 5.0 | 0.00 | 0.00 | 0.00 | 64 | 1013.3 |
| 20260831230214 | 92 | 162 | 1.0 | 5.0 | 0.00 | 0.00 | 0.00 | 64 | 1013.3 |
| 20260831225908 | 92 | 140 | 1.0 | 7.0 | 0.00 | 0.00 | 0.00 | 64 | 1013.3 |
| 20260831225129 | 92 | 165 | 1.0 | 7.0 | 0.00 | 0.00 | 0.00 | 64 | 1013.2 |
| 20260831224624 | 92 | 159 | 1.0 | 4.0 | 0.00 | 0.00 | 0.00 | 65 | 1013.3 |
| 20260831224103 | 92 | 163 | 1.0 | 5.0 | 0.00 | 0.00 | 0.00 | 64 | 1013.4 |
| 20260831223539 | 92 | 190 | 1.0 | 5.0 | 0.00 | 0.00 | 0.00 | 64 | 1013.4 |
| 20260831223022 | 92 | 172 | 1.0 | 5.0 | 0.00 | 0.00 | 0.00 | 65 | 1013.4 |
| 20260831222523 | 92 | 157 | 1.0 | 4.0 | 0.00 | 0.00 | 0.00 | 65 | 1013.3 |
| 20260831221955 | 92 | 156 | 1.0 | 7.0 | 0.00 | 0.00 | 0.00 | 65 | 1013.4 |
| 20260831221653 | 92 | 169 | 2.0 | 6.0 | 0.00 | 0.00 | 0.00 | 65 | 1013.3 |
| 20260831220913 | 92 | 164 | 2.0 | 6.0 | 0.00 | 0.00 | 0.00 | 65 | 1013.4 |
| 20260831220341 | 91 | 190 | 1.0 | 6.0 | 0.00 | 0.00 | 0.00 | 66 | 1013.5 |
| 20260831215841 | 91 | 143 | 1.0 | 6.0 | 0.00 | 0.00 | 0.00 | 65 | 1013.5 |
| 20260831215341 | 91 | 175 | 2.0 | 8.0 | 0.00 | 0.00 | 0.00 | 66 | 1013.4 |
| 20260831215039 | 92 | 194 | 2.0 | 8.0 | 0.00 | 0.00 | 0.00 | 65 | 1013.5 |
| 20260831214323 | 92 | 175 | 2.0 | 5.0 | 0.00 | 0.00 | 0.00 | 65 | 1013.6 |
| 20260831213812 | 92 | 152 | 2.0 | 7.0 | 0.00 | 0.00 | 0.00 | 66 | 1013.6 |
| 20260831213314 | 92 | 129 | 2.0 | 7.0 | 0.00 | 0.00 | 0.00 | 66 | 1013.6 |
| 20260831212813 | 92 | 65 | 2.0 | 7.0 | 0.00 | 0.00 | 0.00 | 66 | 1013.7 |
| 20260831212307 | 93 | 142 | 2.0 | 7.0 | 0.00 | 0.00 | 0.00 | 65 | 1013.7 |
| 20260831211806 | 93 | 125 | 2.0 | 7.0 | 0.00 | 0.00 | 0.00 | 65 | 1013.7 |
| 20260831211304 | 93 | 141 | 2.0 | 8.0 | 0.00 | 0.00 | 0.00 | 65 | 1013.7 |
| 20260831210803 | 94 | 190 | 3.0 | 9.0 | 0.00 | 0.00 | 0.00 | 64 | 1013.7 |
| 20260831210303 | 95 | 184 | 2.0 | 9.0 | 0.00 | 0.00 | 0.00 | 63 | 1013.8 |
| 20260831210010 | 96 | 126 | 1.0 | 7.0 | 0.00 | 0.00 | 0.00 | 62 | 1013.8 |
| 20260831205226 | 95 | 185 | 2.0 | 7.0 | 0.00 | 0.00 | 0.00 | 63 | 1013.8 |
| 20260831204726 | 97 | 197 | 2.0 | 8.0 | 0.00 | 0.00 | 0.00 | 60 | 1013.8 |
| 20260831204444 | 97 | 163 | 1.0 | 8.0 | 0.00 | 0.00 | 0.00 | 55 | 1013.8 |
| 20260831203724 | 98 | 155 | 1.0 | 5.0 | 0.00 | 0.00 | 0.00 | 55 | 1013.9 |
| 20260831203222 | 98 | 142 | 1.0 | 5.0 | 0.00 | 0.00 | 0.00 | 55 | 1014.0 |
| 20260831202724 | 98 | 147 | 1.0 | 5.0 | 0.00 | 0.00 | 0.00 | 57 | 1014.1 |
| 20260831202208 | 97 | 162 | 1.0 | 5.0 | 0.00 | 0.00 | 0.00 | 55 | 1014.2 |
| 20260831201710 | 98 | 101 | 1.0 | 5.0 | 0.00 | 0.00 | 0.00 | 53 | 1014.2 |
| 20260831201154 | 97 | 144 | 1.0 | 5.0 | 0.00 | 0.00 | 0.00 | 55 | 1014.3 |
| 20260831200654 | 98 | 121 | 2.0 | 5.0 | 0.00 | 0.00 | 0.00 | 54 | 1014.4 |
| 20260831200152 | 96 | 171 | 1.0 | 5.0 | 0.00 | 0.00 | 0.00 | 57 | 1014.4 |
| 20260831195625 | 96 | 181 | 1.0 | 4.0 | 0.00 | 0.00 | 0.00 | 56 | 1014.4 |
| 20260831195105 | 95 | 156 | 1.0 | 4.0 | 0.00 | 0.00 | 0.00 | 57 | 1014.5 |
| 20260831194549 | 96 | 164 | 1.0 | 4.0 | 0.00 | 0.00 | 0.00 | 58 | 1014.5 |
| 20260831194047 | 97 | 98 | 1.0 | 3.0 | 0.00 | 0.00 | 0.00 | 57 | 1014.7 |
| 20260831193547 | 96 | 153 | 1.0 | 7.0 | 0.00 | 0.00 | 0.00 | 59 | 1014.8 |
| 20260831193251 | 96 | 336 | 1.0 | 7.0 | 0.00 | 0.00 | 0.00 | 57 | 1014.8 |
| 20260831192523 | 96 | 17 | 2.0 | 7.0 | 0.00 | 0.00 | 0.00 | 56 | 1014.8 |
| 20260831192239 | 96 | 153 | 2.0 | 9.0 | 0.00 | 0.00 | 0.00 | 60 | 1014.9 |
| 20260831191521 | 97 | 82 | 2.0 | 9.0 | 0.00 | 0.00 | 0.00 | 57 | 1015.0 |
| 20260831191020 | 97 | 92 | 1.0 | 8.0 | 0.00 | 0.00 | 0.00 | 62 | 1015.0 |
| 20260831190519 | 96 | 169 | 2.0 | 8.0 | 0.00 | 0.00 | 0.00 | 58 | 1015.2 |
| 20260831190221 | 96 | 195 | 1.0 | 5.0 | 0.00 | 0.00 | 0.00 | 58 | 1015.2 |
| 20260831185503 | 97 | 144 | 1.0 | 5.0 | 0.00 | 0.00 | 0.00 | 58 | 1015.3 |
| 20260831185004 | 96 | 155 | 1.0 | 6.0 | 0.00 | 0.00 | 0.00 | 60 | 1015.3 |
| 20260831184809 | 94 | 76 | 1.0 | 6.0 | 0.00 | 0.00 | 0.00 | 63 | 1015.3 |
| 20260831184701 | 93 | 168 | 1.0 | 4.0 | 0.00 | 0.00 | 0.00 | 64 | 1015.5 |
| 20260831183709 | 93 | 309 | 1.0 | 5.0 | 0.00 | 0.00 | 0.00 | 62 | 1015.5 |
| 20260831182920 | 94 | 33 | 1.0 | 5.0 | 0.00 | 0.00 | 0.00 | 60 | 1015.6 |
| 20260831182419 | 94 | 19 | 2.0 | 5.0 | 0.00 | 0.00 | 0.00 | 62 | 1015.6 |
| 20260831181859 | 94 | 28 | 1.0 | 5.0 | 0.00 | 0.00 | 0.00 | 61 | 1015.7 |
| 20260831181340 | 95 | 90 | 1.0 | 5.0 | 0.00 | 0.00 | 0.00 | 62 | 1015.8 |
| 20260831180842 | 95 | 161 | 1.0 | 5.0 | 0.00 | 0.00 | 0.00 | 64 | 1015.7 |
| 20260831180340 | 94 | 169 | 1.0 | 5.0 | 0.00 | 0.00 | 0.00 | 64 | 1015.8 |
| 20260831180034 | 93 | 198 | 0.0 | 3.0 | 0.00 | 0.00 | 0.00 | 66 | 1016.0 |
| 20260831175911 | 94 | 163 | 1.0 | 5.0 | 0.00 | 0.00 | 0.00 | 64 | 1016.0 |
| 20260831174825 | 94 | 140 | 1.0 | 5.0 | 0.00 | 0.00 | 0.00 | 63 | 1016.1 |
| 20260831174300 | 94 | 140 | 1.0 | 5.0 | 0.00 | 0.00 | 0.00 | 66 | 1016.1 |
| 20260831173802 | 94 | 194 | 1.0 | 6.0 | 0.00 | 0.00 | 0.00 | 62 | 1016.2 |
| 20260831173301 | 93 | 56 | 1.0 | 6.0 | 0.00 | 0.00 | 0.00 | 63 | 1016.2 |
| 20260831172743 | 94 | 88 | 1.0 | 7.0 | 0.00 | 0.00 | 0.00 | 64 | 1016.3 |
| 20260831172243 | 94 | 163 | 1.0 | 7.0 | 0.00 | 0.00 | 0.00 | 65 | 1016.4 |
| 20260831171744 | 93 | 180 | 2.0 | 7.0 | 0.00 | 0.00 | 0.00 | 66 | 1016.4 |
| 20260831171225 | 93 | 101 | 2.0 | 7.0 | 0.00 | 0.00 | 0.00 | 65 | 1016.5 |
| 20260831170722 | 93 | 197 | 2.0 | 6.0 | 0.00 | 0.00 | 0.00 | 67 | 1016.5 |
| 20260831170448 | 92 | 185 | 1.0 | 5.0 | 0.00 | 0.00 | 0.00 | 68 | 1016.5 |
| 20260831165703 | 92 | 72 | 1.0 | 5.0 | 0.00 | 0.00 | 0.00 | 68 | 1016.5 |
| 20260831165407 | 91 | 190 | 1.0 | 5.0 | 0.00 | 0.00 | 0.00 | 70 | 1016.6 |
| 20260831164619 | 91 | 101 | 1.0 | 4.0 | 0.00 | 0.00 | 0.00 | 70 | 1016.6 |
| 20260831164102 | 91 | 83 | 1.0 | 4.0 | 0.00 | 0.00 | 0.00 | 71 | 1016.6 |
| 20260831163600 | 91 | 306 | 1.0 | 3.0 | 0.00 | 0.00 | 0.00 | 70 | 1016.6 |
| 20260831163103 | 91 | 300 | 1.0 | 3.0 | 0.00 | 0.00 | 0.00 | 69 | 1016.6 |
| 20260831162544 | 91 | 340 | 1.0 | 2.0 | 0.00 | 0.00 | 0.00 | 69 | 1016.6 |
| 20260831162016 | 91 | 148 | 1.0 | 5.0 | 0.00 | 0.00 | 0.00 | 71 | 1016.7 |
| 20260831161502 | 91 | 158 | 1.0 | 6.0 | 0.00 | 0.00 | 0.00 | 70 | 1016.6 |
| 20260831160940 | 91 | 49 | 1.0 | 6.0 | 0.00 | 0.00 | 0.00 | 70 | 1016.6 |
| 20260831160421 | 90 | 9 | 1.0 | 6.0 | 0.00 | 0.00 | 0.00 | 70 | 1016.7 |
| 20260831155855 | 90 | 76 | 1.0 | 6.0 | 0.00 | 0.00 | 0.00 | 70 | 1016.7 |
| 20260831155333 | 90 | 42 | 1.0 | 5.0 | 0.00 | 0.00 | 0.00 | 70 | 1016.7 |
| 20260831154811 | 89 | 145 | 1.0 | 5.0 | 0.00 | 0.00 | 0.00 | 72 | 1016.8 |
| 20260831154250 | 89 | 145 | 1.0 | 5.0 | 0.00 | 0.00 | 0.00 | 74 | 1016.8 |
| 20260831153726 | 88 | 144 | 1.0 | 5.0 | 0.00 | 0.00 | 0.00 | 74 | 1016.7 |
| 20260831153225 | 88 | 202 | 0.0 | 5.0 | 0.00 | 0.00 | 0.00 | 79 | 1016.7 |
| 20260831152702 | 87 | 188 | 0.0 | 2.0 | 0.00 | 0.00 | 0.00 | 79 | 1016.7 |
| 20260831152139 | 87 | 255 | 0.0 | 3.0 | 0.00 | 0.00 | 0.00 | 80 | 1016.7 |
| 20260831151640 | 86 | 255 | 1.0 | 3.0 | 0.00 | 0.00 | 0.00 | 80 | 1016.6 |
| 20260831151135 | 86 | 255 | 1.0 | 3.0 | 0.00 | 0.00 | 0.00 | 80 | 1016.6 |
| 20260831150617 | 86 | 221 | 0.0 | 3.0 | 0.00 | 0.00 | 0.00 | 80 | 1016.5 |
| 20260831150116 | 85 | 288 | 0.0 | 3.0 | 0.00 | 0.00 | 0.00 | 81 | 1016.5 |
| 20260831145837 | 85 | 288 | 1.0 | 3.0 | 0.00 | 0.00 | 0.00 | 82 | 1016.6 |
| 20260831145051 | 85 | 278 | 1.0 | 2.0 | 0.00 | 0.00 | 0.00 | 83 | 1016.5 |
| 20260831144533 | 85 | 157 | 1.0 | 2.0 | 0.00 | 0.00 | 0.00 | 85 | 1016.5 |
| 20260831144032 | 84 | 188 | 0.0 | 2.0 | 0.00 | 0.00 | 0.00 | 86 | 1016.5 |
| 20260831143508 | 84 | 192 | 1.0 | 2.0 | 0.00 | 0.00 | 0.00 | 88 | 1016.4 |
| 20260831143010 | 83 | 196 | 0.0 | 2.0 | 0.00 | 0.00 | 0.00 | 90 | 1016.4 |
| 20260831142710 | 83 | 248 | 0.0 | 2.0 | 0.00 | 0.00 | 0.00 | 91 | 1016.4 |
| 20260831141927 | 82 | 254 | 0.0 | 2.0 | 0.00 | 0.00 | 0.00 | 92 | 1016.4 |
| 20260831141419 | 82 | 253 | 0.0 | 1.0 | 0.00 | 0.00 | 0.00 | 93 | 1016.3 |
| 20260831140851 | 81 | 310 | 0.0 | 1.0 | 0.00 | 0.00 | 0.00 | 93 | 1016.3 |
| 20260831140603 | 81 | 350 | 0.0 | 3.0 | 0.00 | 0.00 | 0.00 | 94 | 1016.3 |
| 20260831135827 | 81 | 350 | 0.0 | 3.0 | 0.00 | 0.00 | 0.00 | 94 | 1016.3 |
| 20260831135327 | 81 | 116 | 0.0 | 1.0 | 0.00 | 0.00 | 0.00 | 95 | 1016.2 |
| 20260831134825 | 80 | 116 | 0.0 | 1.0 | 0.00 | 0.00 | 0.00 | 95 | 1016.1 |
| 20260831134257 | 80 | 117 | 0.0 | 1.0 | 0.00 | 0.00 | 0.00 | 95 | 1016.1 |
| 20260831133754 | 80 | 117 | 0.0 | 1.0 | 0.00 | 0.00 | 0.00 | 96 | 1016.2 |
| 20260831133234 | 80 | 117 | 0.0 | 1.0 | 0.00 | 0.00 | 0.00 | 96 | 1016.1 |
| 20260831132731 | 80 | 117 | 0.0 | 1.0 | 0.00 | 0.00 | 0.00 | 96 | 1016.0 |
| 20260831132713 | 79 | 177 | 0.0 | 1.0 | 0.00 | 0.00 | 0.00 | 97 | 1016.0 |
| 20260831131922 | 79 | 180 | 0.0 | 1.0 | 0.00 | 0.00 | 0.00 | 97 | 1015.9 |
| 20260831131200 | 79 | 174 | 0.0 | 1.0 | 0.00 | 0.00 | 0.00 | 97 | 1015.8 |
| 20260831130905 | 79 | 175 | 0.0 | 1.0 | 0.00 | 0.00 | 0.00 | 97 | 1015.8 |
| 20260831130355 | 78 | 175 | 0.0 | 1.0 | 0.00 | 0.00 | 0.00 | 97 | 1015.9 |
| 20260831125615 | 78 | 175 | 0.0 | 1.0 | 0.00 | 0.00 | 0.00 | 98 | 1015.8 |
| 20260831125100 | 78 | 175 | 0.0 | 0.0 | 0.00 | 0.00 | 0.00 | 97 | 1015.8 |
| 20260831124559 | 77 | 175 | 0.0 | 0.0 | 0.00 | 0.00 | 0.00 | 97 | 1015.7 |
| 20260831124056 | 77 | 175 | 0.0 | 0.0 | 0.00 | 0.00 | 0.00 | 97 | 1015.7 |
| 20260831123816 | 77 | 175 | 0.0 | 0.0 | 0.00 | 0.00 | 0.00 | 97 | 1015.6 |
| 20260831123051 | 76 | 175 | 0.0 | 0.0 | 0.00 | 0.00 | 0.00 | 97 | 1015.6 |
| 20260831122746 | 76 | 175 | 0.0 | 0.0 | 0.00 | 0.00 | 0.00 | 97 | 1015.6 |
| 20260831122029 | 76 | 175 | 0.0 | 0.0 | 0.00 | 0.00 | 0.00 | 96 | 1015.5 |
| 20260831121504 | 76 | 175 | 0.0 | 0.0 | 0.00 | 0.00 | 0.00 | 96 | 1015.4 |
| 20260831120936 | 76 | 175 | 0.0 | 0.0 | 0.00 | 0.00 | 0.00 | 96 | 1015.2 |
| 20260831120415 | 76 | 175 | 0.0 | 0.0 | 0.00 | 0.00 | 0.00 | 96 | 1015.1 |
| 20260831120113 | 76 | 175 | 0.0 | 0.0 | 0.00 | 0.00 | 0.00 | 96 | 1015.0 |
| 20260831115325 | 76 | 175 | 0.0 | 0.0 | 0.00 | 0.00 | 0.00 | 96 | 1015.1 |
| 20260831115026 | 76 | 175 | 0.0 | 0.0 | 0.00 | 0.00 | 0.00 | 96 | 1015.0 |
| 20260831114239 | 76 | 175 | 0.0 | 0.0 | 0.00 | 0.00 | 0.00 | 96 | 1014.9 |
| 20260831113713 | 76 | 175 | 0.0 | 0.0 | 0.00 | 0.00 | 0.00 | 96 | 1014.9 |
| 20260831113211 | 77 | 175 | 0.0 | 0.0 | 0.00 | 0.00 | 0.00 | 96 | 1014.9 |
| 20260831112932 | 77 | 175 | 0.0 | 0.0 | 0.00 | 0.00 | 0.00 | 96 | 1015.0 |
| 20260831112410 | 77 | 175 | 0.0 | 0.0 | 0.00 | 0.00 | 0.00 | 95 | 1015.0 |
| 20260831111643 | 77 | 175 | 0.0 | 0.0 | 0.00 | 0.00 | 0.00 | 95 | 1014.9 |
| 20260831111116 | 77 | 175 | 0.0 | 0.0 | 0.00 | 0.00 | 0.00 | 95 | 1014.9 |
| 20260831110549 | 77 | 175 | 0.0 | 0.0 | 0.00 | 0.00 | 0.00 | 95 | 1014.9 |
| 20260831110049 | 77 | 175 | 0.0 | 0.0 | 0.00 | 0.00 | 0.00 | 95 | 1014.9 |
| 20260831105548 | 77 | 175 | 0.0 | 0.0 | 0.00 | 0.00 | 0.00 | 95 | 1014.9 |
| 20260831105021 | 77 | 175 | 0.0 | 0.0 | 0.00 | 0.00 | 0.00 | 95 | 1014.8 |
| 20260831104931 | 77 | 175 | 0.0 | 0.0 | 0.00 | 0.00 | 0.00 | 95 | 1014.8 |
| 20260831103928 | 77 | 175 | 0.0 | 0.0 | 0.00 | 0.00 | 0.00 | 95 | 1014.7 |
| 20260831103412 | 77 | 175 | 0.0 | 0.0 | 0.00 | 0.00 | 0.00 | 95 | 1014.8 |
| 20260831102910 | 77 | 175 | 0.0 | 0.0 | 0.00 | 0.00 | 0.00 | 95 | 1014.8 |
| 20260831102408 | 77 | 175 | 0.0 | 0.0 | 0.00 | 0.00 | 0.00 | 95 | 1014.8 |
| 20260831101908 | 77 | 175 | 0.0 | 0.0 | 0.00 | 0.00 | 0.00 | 95 | 1014.9 |
| 20260831101631 | 77 | 175 | 0.0 | 0.0 | 0.00 | 0.00 | 0.00 | 95 | 1014.9 |
| 20260831100907 | 77 | 175 | 0.0 | 0.0 | 0.00 | 0.00 | 0.00 | 95 | 1015.1 |
| 20260831100340 | 78 | 175 | 0.0 | 0.0 | 0.00 | 0.00 | 0.00 | 95 | 1015.1 |
| 20260831095818 | 78 | 175 | 0.0 | 0.0 | 0.00 | 0.00 | 0.00 | 95 | 1015.1 |
| 20260831095249 | 78 | 175 | 0.0 | 0.0 | 0.00 | 0.00 | 0.00 | 94 | 1015.1 |
| 20260831094749 | 78 | 175 | 0.0 | 0.0 | 0.00 | 0.00 | 0.00 | 94 | 1015.0 |
| 20260831094226 | 78 | 175 | 0.0 | 0.0 | 0.00 | 0.00 | 0.00 | 94 | 1015.0 |
| 20260831093704 | 78 | 175 | 0.0 | 0.0 | 0.00 | 0.00 | 0.00 | 94 | 1014.9 |
| 20260831093423 | 78 | 175 | 0.0 | 0.0 | 0.00 | 0.00 | 0.00 | 94 | 1014.9 |